Location: Unspecified
(50.7693°N, 0.0000°E)
Time: 06:40:00
(UTC+00:00)

Transit 2A - Pass Details

Date: 01 July 2019
Orbit: 594 x 965 km, 66.7° (Epoch: 17 July)

Event Time Altitude Azimuth Distance (km) Brightness Sun altitude
Rises 20:28:49 0° 160° (SSE) 3,634 8.9 -2.3°
Reaches altitude 10° 20:32:21 10° 141° (SE) 2,697 8.2 -2.7°
Maximum altitude 20:36:07 17° 104° (ESE) 2,244 7.9 -3.1°
Drops below altitude 10° 20:39:50 10° 67° (ENE) 2,662 8.6 -3.6°
Sets 20:43:17 0° 48° (NE) 3,566 9.4 -4.0°
